Simultaneous Nadir Overpasses (SNOs) Predictions

Prediction of SNOs between AQUA and METOP-A Satellite Orbit:

Table of predicted SNOs for the next 14.0 days since TLE Epoch: 2/2/2017
Index Date (AQUA) Time (AQUA) Lat,Lon (AQUA) SZA (AQUA ) Date (METOP-A) Time (METOP-A) Lat,Lon (METOP-A) SZA (METOP-A ) Distance(km) Time Diff (sec)
1 02/05/2017 07:47:14 73.80, 57.40 89.74 02/05/2017 07:46:02 73.79, 57.43 89.74 1.68 72
2 02/05/2017 08:36:40 -73.84,-135.03 90.24 02/05/2017 08:36:42 -73.86,-135.08 90.21 2.64 2
3 02/05/2017 09:26:09 73.90, 32.46 89.83 02/05/2017 09:27:21 73.91, 32.40 89.83 2.72 72
4 02/08/2017 03:21:29 73.80, 123.85 88.86 02/08/2017 03:20:22 73.82, 123.92 88.90 3.18 67
5 02/08/2017 04:10:56 -73.88, -68.69 91.06 02/08/2017 04:11:02 -73.89, -68.58 91.06 3.56 6
6 02/08/2017 05:00:27 74.05, 98.56 89.12 02/08/2017 05:01:39 74.05, 99.13 89.08 17.37 72
7 02/10/2017 22:55:45 73.80,-169.73 87.96 02/10/2017 22:54:44 73.80,-169.72 87.97 0.54 61
8 02/10/2017 23:45:12 -73.88, -2.26 91.97 02/10/2017 23:45:24 -73.87, -2.21 91.98 1.84 12
9 02/11/2017 00:34:47 74.27, 164.50 88.44 02/11/2017 00:35:56 74.27, 166.10 88.37 48.29 69
10 02/13/2017 18:30:01 73.82,-103.32 87.04 02/13/2017 18:29:05 73.83,-103.24 87.06 2.63 56
11 02/13/2017 19:19:27 -73.85, 64.27 92.95 02/13/2017 19:19:46 -73.86, 64.15 92.94 3.77 19
12 02/13/2017 20:09:07 74.49,-129.59 87.75 02/13/2017 20:10:13 74.50,-126.91 87.63 79.72 66
13 02/16/2017 14:04:15 73.79, -36.82 86.04 02/16/2017 14:03:26 73.81, -36.88 86.07 2.36 49
14 02/16/2017 14:53:42 -73.87, 130.66 93.90 02/16/2017 14:54:06 -73.89, 130.64 93.88 2.40 24




NCC Satellite Simultaneous Nadir Overpasses (SNOs) Prediction Service
